[[{"header":{"parameterUnit":"m.s-1","parameterCategory":1,"la1":30.2991,"la2":30.254,"lo1":-89.0895,"lo2":-89.0444,"dy":0.0017,"dx":0.0017,"nx":28,"ny":28,"refTime":"2023-03-27T15:00:00:Z","depth":0,"parameterNumber":2,"parameterNumberName":"U-component_of_WINDS"},"data":[0,0,0,0,0,0,0,0,0,0,0,0,0,0,0,0,0,0,0,0,0,0,0,0,0,0,0,0,0,0,0,0,0,0,0,0,0,0,0,0,0,0,0,0,0,0,0,0,0,0,0,0,0,0,0,0,0,0,-2.6116,-2.6117,0,-2.6219,-2.6221,-2.6222,-2.6159,-2.6156,-2.6153,-2.615,-2.626,-2.6266,-2.6272,0,0,0,0,0,0,0,0,0,0,0,0,0,-2.5867,-2.5872,-2.6116,-2.6117,-2.6119,-2.6219,-2.6221,-2.6222,-2.616,-2.6156,-2.6152,-2.6149,-2.6258,-2.6265,-2.6272,0,0,0,0,0,0,0,0,0,0,0,0,0,-2.5974,-2.5874,-2.6116,-2.6099,-2.6099,-2.6219,-2.6221,-2.6222,-2.616,-2.6156,-2.6151,-2.6147,-2.6256,-2.6265,-2.6273,-2.6416,0,0,-2.6299,-2.6303,0,0,0,0,0,0,0,0,-2.5968,-2.5983,-2.6101,-2.6101,-2.61,-2.6172,-2.6173,-2.6288,-2.6162,-2.6137,-2.615,-2.6145,-2.6235,-2.6245,-2.6274,-2.6421,-2.6426,-2.63,-2.6305,-2.6309,-2.6311,0,0,0,0,0,0,0,-2.596,-2.5978,-2.6157,-2.6102,-2.6102,-2.6088,-2.6098,-2.6195,-2.621,-2.6139,-2.6135,-2.6148,-2.6234,-2.6266,-2.6276,-2.6428,-2.63,-2.6307,-2.6313,-2.6316,-2.6697,-2.6702,0,0,0,0,0,0,-2.5954,-2.5972,-2.6154,-2.616,-2.6021,-2.6096,-2.6107,-2.6153,-2.6209,-2.6213,-2.6151,-2.6144,-2.6254,-2.6266,-2.628,-2.6452,-2.6309,-2.6317,-2.6322,-2.6692,-2.6698,-2.6704,0,0,0,0,0,0,-2.5949,-2.597,-2.6149,-2.6065,-2.6087,-2.6105,-2.6157,-2.6158,-2.619,-2.6218,-2.6221,-2.6181,-2.6251,-2.6268,-2.6382,-2.6455,-2.6321,-2.6329,-2.6686,-2.6694,-2.6701,-2.6797,0,0,0,0,0,0,-2.5942,-2.5969,-2.6023,-2.6067,-2.6091,-2.625,-2.6162,-2.6163,-2.6204,-2.6196,-2.6247,-2.6251,-2.6248,-2.637,-2.6391,-2.6464,-2.6335,-2.668,-2.669,-2.6699,-2.6787,-2.6806,-2.6823,0,0,0,0,0,-2.5933,-2.6047,-2.6026,-2.6048,-2.6159,-2.6254,-2.6268,-2.6262,-2.621,-2.6266,-2.6283,-2.6249,-2.6443,-2.6382,-2.6405,-2.6482,-2.6675,-2.6687,-2.6698,-2.6779,-2.6803,-2.6822,0,0,0,0,0,0,-2.6013,-2.6052,-2.603,-2.6161,-2.6204,-2.6243,-2.6313,-2.6287,-2.6347,-2.6337,-2.6327,-2.6339,-2.6459,-2.6482,-2.6413,-2.6623,-2.6551,-2.6568,-2.6605,-2.6628,-2.6645,-2.6639,-2.6342,0,0,0,0,0,-2.6046,-2.6119,-2.6149,-2.6262,-2.6284,-2.6295,-2.6336,-2.6327,-2.6372,-2.6391,-2.6417,-2.6463,-2.6534,-2.6582,-2.6649,-2.6789,-2.68,-2.6853,-2.6871,-2.6885,-2.6901,-2.6977,-2.7001,-2.674,-2.674,-2.674,0,0,-2.6115,-2.6145,-2.6192,-2.6279,-2.6311,-2.6388,-2.6311,-2.6395,-2.6453,-2.6404,-2.6514,-2.6534,-2.6585,-2.6714,-2.6771,-2.6736,-2.6974,-2.69,-2.6911,-2.6919,-2.6991,-2.7016,-2.7038,-2.6748,-2.6746,-2.6745,0,0,-2.628,-2.6309,-2.6407,-2.6441,-2.649,-2.6496,-2.6519,-2.6562,-2.6573,-2.6683,-2.6648,-2.6716,-2.6838,-2.6876,-2.6911,-2.7088,-2.706,-2.711,-2.7205,-2.728,-2.73,-2.7319,-2.7383,-2.7407,-2.7125,-2.7125,-2.7125,0,-2.636,-2.6473,-2.6461,-2.6548,-2.6587,-2.6544,-2.6643,-2.6677,-2.6747,-2.6775,-2.6734,-2.6886,-2.6918,-2.7054,-2.7097,-2.7127,-2.7154,-2.7106,-2.7298,-2.7316,-2.7333,-2.7395,-2.7419,-2.7131,-2.713,-2.713,-2.7129,0,-2.657,-2.6649,-2.6721,-2.6788,-2.6835,-2.6928,-2.693,-2.698,-2.6966,-2.6976,-2.7088,-2.7124,-2.7197,-2.7228,-2.7216,-2.7363,-2.734,-2.7299,-2.7226,-2.7364,-2.7422,-2.7446,-2.7139,-2.7137,-2.7136,-2.7134,0,0,-2.6792,-2.6848,-2.6876,-2.6906,-2.6956,-2.7017,-2.7108,-2.7178,-2.7221,-2.727,-2.7347,-2.745,-2.7412,-2.7452,-2.7443,-2.7508,-2.7648,-2.7459,-2.746,-2.7494,-2.7814,-2.7846,-2.7874,-2.7627,-2.7632,-2.7635,-2.781,0,-2.6962,-2.7119,-2.7109,-2.7258,-2.7331,-2.729,-2.7368,-2.7409,-2.742,-2.7484,-2.7497,-2.7571,-2.7514,-2.7538,-2.76,-2.7618,-2.7712,-2.7604,-2.7701,-2.7704,-2.7692,-2.7904,-2.7939,-2.8102,-2.7832,-2.7836,-2.7839,0,-2.7182,-2.7237,-2.7392,-2.7431,-2.7461,-2.7532,-2.7596,-2.7657,-2.7701,-2.7705,-2.7749,-2.7729,-2.7821,-2.7744,-2.7871,-2.7798,-2.7836,-2.7851,-2.7857,-2.7868,-2.7782,-2.7923,-2.8154,-2.818,-2.7874,-2.7871,-2.7869,0,-2.7331,-2.7443,-2.755,-2.7577,-2.7624,-2.7676,-2.7698,-2.7737,-2.778,-2.7835,-2.7863,-2.7929,-2.7966,-2.8017,-2.8016,-2.7959,-2.8145,-2.8068,-2.8153,-2.8153,-2.8197,-2.8194,-2.844,-2.8217,-2.8217,-2.8216,-2.8216,0,-2.7523,-2.762,-2.7618,-2.7685,-2.7792,-2.7779,-2.7887,-2.7904,-2.7939,-2.8009,-2.7976,-2.8043,-2.8035,-2.8102,-2.8101,-2.8208,-2.8224,-2.8231,-2.823,-2.8236,-2.8235,-2.8263,-2.8252,-2.8223,-2.8221,-2.822,-2.8219,0,-2.7709,-2.7711,-2.7826,-2.7861,-2.7871,-2.795,-2.798,-2.8043,-2.805,-2.8139,-2.8159,-2.8171,-2.8248,-2.8251,-2.8339,-2.8339,-2.8469,-2.8454,-2.8454,-2.8453,-2.8538,-2.8531,-2.8812,-2.8849,-2.86,-2.8602,-2.8604,0,-2.7833,-2.7907,-2.7949,-2.7992,-2.8017,-2.8088,-2.8131,-2.8121,-2.8167,-2.8222,-2.8279,-2.8352,-2.8411,-2.8536,-2.8553,-2.8621,-2.8609,-2.8703,-2.8619,-2.8622,-2.8613,-2.861,-2.8618,-2.872,-2.8723,-2.8725,-2.8727,0,-2.8054,-2.8051,-2.8113,-2.8176,-2.8227,-2.8276,-2.8322,-2.8359,-2.8354,-2.8408,-2.8485,-2.853,-2.862,-2.8694,-2.8759,-2.8783,-2.8756,-2.8752,-2.8776,-2.8784,-2.8782,-2.8786,-2.8501,-2.8747,-2.8745,-2.8743,-2.8742,-2.8742,-2.8215,-2.8278,-2.8317,-2.8388,-2.842,-2.8463,-2.8524,-2.8538,-2.8602,-2.8673,-2.8663,-2.875,-2.8791,-2.8876,-2.8905,-2.8973,-2.8941,-2.8974,-2.8984,-2.8993,-2.9003,-2.8768,-2.8984,-2.8984,-2.8983,-2.8983,-2.8982,0,-2.8435,-2.8458,-2.8522,-2.8586,-2.8641,-2.8607,-2.8655,-2.8704,-2.8781,-2.8821,-2.8878,-2.8967,-2.9038,-2.906,-2.9129,-2.918,-2.9169,-2.9198,-2.9196,-2.9202,-2.9027,-2.9,-2.9206,-2.9206,-2.9206,-2.9206,-2.9206,-2.9206,-2.8557,-2.8663,-2.8664,-2.8786,-2.8807,-2.8891,-2.8922,-2.8961,-2.8993,-2.9094,-2.9152,-2.9165,-2.9198,-2.9269,-2.9332,-2.9337,-2.9365,-2.9401,-2.94,-2.9237,-2.9214,-2.9193,-2.9168,-2.9406,-2.9406,-2.957,-2.9572,-2.9573]},{"header":{"parameterUnit":"m.s-1","parameterCategory":1,"la1":30.2991,"la2":30.254,"lo1":-89.0895,"lo2":-89.0444,"dy":0.0017,"dx":0.0017,"nx":28,"ny":28,"refTime":"2023-03-27T15:00:00:Z","depth":0,"parameterNumber":3,"parameterNumberName":"V-component_of_WINDS"},"data":[0,0,0,0,0,0,0,0,0,0,0,0,0,0,0,0,0,0,0,0,0,0,0,0,0,0,0,0,0,0,0,0,0,0,0,0,0,0,0,0,0,0,0,0,0,0,0,0,0,0,0,0,0,0,0,0,0,0,-6.0852,-6.0853,0,-6.095,-6.0951,-6.0953,-6.0869,-6.0865,-6.0862,-6.0858,-6.0957,-6.0962,-6.0968,0,0,0,0,0,0,0,0,0,0,0,0,0,-6.0587,-6.0592,-6.0852,-6.0853,-6.0854,-6.095,-6.0951,-6.0953,-6.0869,-6.0865,-6.0861,-6.0857,-6.0955,-6.0962,-6.0969,0,0,0,0,0,0,0,0,0,0,0,0,0,-6.0695,-6.0594,-6.0851,-6.0824,-6.0822,-6.095,-6.0952,-6.0953,-6.087,-6.0865,-6.086,-6.0855,-6.0953,-6.0961,-6.097,-6.1129,0,0,-6.0997,-6.1,0,0,0,0,0,0,0,0,-6.0689,-6.0705,-6.0827,-6.0826,-6.0825,-6.0892,-6.0894,-6.1012,-6.0871,-6.0852,-6.0858,-6.0852,-6.0939,-6.0949,-6.0979,-6.1133,-6.1137,-6.0997,-6.1003,-6.1007,-6.1009,0,0,0,0,0,0,0,-6.0682,-6.07,-6.089,-6.0829,-6.0827,-6.0805,-6.0815,-6.0916,-6.0924,-6.0853,-6.0847,-6.086,-6.0938,-6.097,-6.098,-6.1139,-6.0997,-6.1005,-6.101,-6.1014,-6.1427,-6.1432,0,0,0,0,0,0,-6.0678,-6.0695,-6.0887,-6.0893,-6.0743,-6.0814,-6.0825,-6.0875,-6.0922,-6.0924,-6.0865,-6.0856,-6.0958,-6.097,-6.0983,-6.1172,-6.1006,-6.1015,-6.102,-6.1421,-6.1428,-6.1434,0,0,0,0,0,0,-6.0672,-6.0696,-6.0883,-6.0793,-6.0815,-6.0825,-6.0882,-6.088,-6.0913,-6.0931,-6.0931,-6.0897,-6.0954,-6.0971,-6.1093,-6.1174,-6.1019,-6.1027,-6.1414,-6.1423,-6.1431,-6.155,0,0,0,0,0,0,-6.0665,-6.0694,-6.0756,-6.0795,-6.082,-6.0993,-6.0887,-6.0886,-6.0929,-6.0918,-6.0962,-6.0964,-6.0951,-6.108,-6.1102,-6.1183,-6.1034,-6.1407,-6.1418,-6.1428,-6.1539,-6.1562,-6.1581,0,0,0,0,0,-6.0656,-6.0785,-6.0759,-6.0783,-6.0897,-6.0998,-6.1012,-6.0996,-6.0936,-6.0997,-6.1008,-6.0962,-6.1162,-6.1093,-6.1117,-6.1202,-6.1402,-6.1415,-6.1428,-6.153,-6.1557,-6.1581,0,0,0,0,0,0,-6.0755,-6.079,-6.0762,-6.0907,-6.095,-6.0983,-6.106,-6.1026,-6.1087,-6.1074,-6.1051,-6.1061,-6.119,-6.1208,-6.1132,-6.1358,-6.1272,-6.129,-6.1341,-6.1368,-6.1389,-6.1382,-6.1041,0,0,0,0,0,-6.0794,-6.0874,-6.0899,-6.1025,-6.1048,-6.1051,-6.1094,-6.1078,-6.1121,-6.1139,-6.1159,-6.1202,-6.1273,-6.1321,-6.1389,-6.1541,-6.1549,-6.1611,-6.1632,-6.1649,-6.1665,-6.1746,-6.1774,-6.1476,-6.1476,-6.1476,0,0,-6.0875,-6.0904,-6.0955,-6.1046,-6.1077,-6.1159,-6.1067,-6.1157,-6.1218,-6.1152,-6.1269,-6.1285,-6.1331,-6.1468,-6.153,-6.1487,-6.1749,-6.1666,-6.1679,-6.1686,-6.1762,-6.179,-6.1815,-6.1485,-6.1483,-6.1482,0,0,-6.1065,-6.1095,-6.1203,-6.1236,-6.1285,-6.1285,-6.1311,-6.135,-6.1358,-6.1475,-6.1427,-6.1497,-6.1622,-6.1657,-6.169,-6.1892,-6.1851,-6.1914,-6.2024,-6.2103,-6.2126,-6.2147,-6.2218,-6.2244,-6.193,-6.193,-6.193,0,-6.1159,-6.1282,-6.1262,-6.1357,-6.1397,-6.1342,-6.145,-6.1483,-6.1551,-6.158,-6.1531,-6.1686,-6.1714,-6.1858,-6.1907,-6.1936,-6.1964,-6.1909,-6.2125,-6.2145,-6.2164,-6.2232,-6.2259,-6.1937,-6.1937,-6.1936,-6.1935,0,-6.1395,-6.1481,-6.1562,-6.163,-6.1679,-6.178,-6.1775,-6.1827,-6.1806,-6.1812,-6.193,-6.196,-6.2032,-6.2065,-6.2046,-6.2207,-6.2179,-6.2128,-6.2041,-6.22,-6.2263,-6.2289,-6.1948,-6.1945,-6.1943,-6.1941,0,0,-6.1651,-6.1706,-6.1736,-6.1766,-6.1815,-6.188,-6.1977,-6.2049,-6.2094,-6.2142,-6.2222,-6.2329,-6.2282,-6.232,-6.2304,-6.2373,-6.253,-6.2313,-6.2314,-6.2352,-6.2708,-6.2746,-6.2776,-6.2503,-6.2508,-6.2512,-6.2704,0,-6.1842,-6.2014,-6.1998,-6.216,-6.2238,-6.2186,-6.227,-6.2309,-6.2316,-6.2382,-6.2389,-6.2465,-6.2398,-6.242,-6.2486,-6.2497,-6.2601,-6.2482,-6.2577,-6.258,-6.2567,-6.2809,-6.285,-6.303,-6.2728,-6.2732,-6.2735,0,-6.2089,-6.2147,-6.2316,-6.2352,-6.2385,-6.2461,-6.2524,-6.2589,-6.2631,-6.2631,-6.2674,-6.2645,-6.2741,-6.2652,-6.2784,-6.2704,-6.2742,-6.2752,-6.2759,-6.2767,-6.2668,-6.2824,-6.3087,-6.3114,-6.2774,-6.2771,-6.2768,0,-6.2259,-6.2378,-6.2495,-6.2522,-6.2567,-6.2622,-6.2643,-6.268,-6.2723,-6.2778,-6.2805,-6.287,-6.2906,-6.2957,-6.2946,-6.2882,-6.308,-6.299,-6.3082,-6.3083,-6.3127,-6.3124,-6.34,-6.3151,-6.3151,-6.315,-6.315,0,-6.2474,-6.258,-6.2571,-6.2643,-6.276,-6.274,-6.2855,-6.287,-6.2903,-6.2975,-6.2933,-6.3002,-6.2983,-6.3051,-6.3043,-6.3153,-6.3169,-6.3171,-6.3168,-6.3175,-6.3175,-6.32,-6.3187,-6.3157,-6.3156,-6.3154,-6.3153,0,-6.2684,-6.2682,-6.2806,-6.2838,-6.2849,-6.2933,-6.296,-6.3027,-6.303,-6.3123,-6.3143,-6.3148,-6.3225,-6.3219,-6.3306,-6.33,-6.3436,-6.3418,-6.3423,-6.3419,-6.3511,-6.3502,-6.3812,-6.3851,-6.3577,-6.358,-6.3582,0,-6.2821,-6.2902,-6.2943,-6.2989,-6.3014,-6.3088,-6.3132,-6.3115,-6.3163,-6.3216,-6.3276,-6.335,-6.3408,-6.3533,-6.3544,-6.3609,-6.3592,-6.3696,-6.3602,-6.3607,-6.3594,-6.3589,-6.3597,-6.3715,-6.3718,-6.3721,-6.3723,0,-6.3066,-6.3061,-6.3127,-6.3192,-6.3246,-6.3297,-6.3342,-6.3382,-6.337,-6.3425,-6.3503,-6.3549,-6.3637,-6.371,-6.3773,-6.3792,-6.3756,-6.3752,-6.3777,-6.3785,-6.3785,-6.3786,-6.3473,-6.3745,-6.3743,-6.3741,-6.374,-6.3739,-6.3244,-6.3312,-6.3352,-6.3426,-6.3458,-6.3502,-6.3566,-6.3577,-6.3643,-6.3715,-6.37,-6.3789,-6.3826,-6.3907,-6.3933,-6.4001,-6.3963,-6.3999,-6.4008,-6.4017,-6.4028,-6.3774,-6.4012,-6.4011,-6.4011,-6.401,-6.401,0,-6.3486,-6.3509,-6.3577,-6.3643,-6.3701,-6.3661,-6.3709,-6.376,-6.3839,-6.3878,-6.3936,-6.4026,-6.4096,-6.4112,-6.4179,-6.423,-6.4215,-6.4248,-6.4244,-6.4249,-6.4058,-6.403,-6.4259,-6.4259,-6.4259,-6.4259,-6.4259,-6.4259,-6.3619,-6.3733,-6.3732,-6.3861,-6.3882,-6.3969,-6.4,-6.404,-6.407,-6.4173,-6.4232,-6.4242,-6.4271,-6.4339,-6.4402,-6.4404,-6.4431,-6.4471,-6.4467,-6.4288,-6.4263,-6.4239,-6.4213,-6.4477,-6.4477,-6.4653,-6.4655,-6.4656]}]]